Regional Weather Roundup
Issued by NWS

Home | Current Version | Previous Version | Graphics & Text | Print | Product List | Glossary On
Versions: 1 2 3 4 5 6 7 8 9 10 11 12 13 14 15 16 17 18 19 20 21 22 23 24 25 26 27 28 29 30 31 32 33 34 35 36 37 38 39 40 41 42 43 44 45 46 47 48 49 50
000
ASUS43 KOAX 182110
RWRNE

WEATHER ROUNDUP FOR NEBRASKA
NATIONAL WEATHER SERVICE OMAHA NE
400 PM CDT SAT APR 18 2015

NOTES: SATELLITE DATA IS BEING USED TO AUGMENT CLOUD COVER ABOVE
       12000 FEET.
       "FAIR" INDICATES FEW OR NO CLOUDS BELOW 12,000 FEET WITH NO
       SIGNIFICANT WEATHER AND/OR OBSTRUCTIONS TO VISIBILITY.

  * THESE STATIONS DO NOT REPORT WEATHER SUCH AS RAIN...SNOW OR FOG.

NEZ001>004-019>022-054>056-182200-
NEBRASKA PANHANDLE

CITY           SKY/WX    TMP DP  RH WIND       PRES   REMARKS
SCOTTSBLUFF    PTSUNNY   58 N/A N/A SW6       29.86F
ALLIANCE       PTSUNNY   59  42  53 VRB3      29.85F
CHADRON        CLOUDY    49  46  90 N9        29.91R
KIMBALL        CLOUDY    52  38  58 NE5       29.85F
SIDNEY         LGT RAIN  54  41  61 S9        29.86F
$$

NEZ057>060-069>072-079>082-182200-
SOUTHWEST NEBRASKA

CITY           SKY/WX    TMP DP  RH WIND       PRES   REMARKS
NORTH PLATTE   PTSUNNY   67  46  47 E5        29.81F
IMPERIAL       MOSUNNY   62  45  53 E13       29.79F
LEXINGTON      MOSUNNY   69  50  50 S8        29.80F
MCCOOK         MOSUNNY   69  46  43 SE8       29.78F
OGALLALA       MOSUNNY   65  42  43 E7        29.80F
$$

NEZ005>010-023>029-035>040-094-182200-
NORTH CENTRAL NEBRASKA

CITY           SKY/WX    TMP DP  RH WIND       PRES   REMARKS
VALENTINE      PTSUNNY   65  49  56 NE3       29.85F
AINSWORTH      PTSUNNY   60  52  74 E6        29.85F
BROKEN BOW     MOSUNNY   70  47  43 VRB3      29.81F
O`NEILL        CLOUDY    62  57  83 NE9       29.84F
ORD            CLOUDY    67  52  58 CALM      29.82F
THEDFORD       SUNNY     67  46  47 SE3       29.84F
$$

NEZ041-046>049-061>064-073>077-083>087-182200-
SOUTH CENTRAL NEBRASKA

CITY           SKY/WX    TMP DP  RH WIND       PRES   REMARKS
GRAND ISLAND   CLOUDY    67  54  63 E7        29.82F
AURORA         CLOUDY    68  57  68 SE12      29.81F
HASTINGS       MOSUNNY   69  55  60 E6        29.80F
HEBRON         PTSUNNY   69  55  62 SE8       29.80F
HOLDREGE       MOSUNNY   71  49  46 W5        29.79F
KEARNEY *      CLOUDY    70  52  52 SE6       29.80F
YORK           CLOUDY    68  57  68 SE9       29.82F
$$

NEZ011>018-030>034-042>045-182200-
NORTHEAST NEBRASKA

CITY           SKY/WX    TMP DP  RH WIND       PRES   REMARKS
ALBION         CLOUDY    66  55  69 SE12      29.83F
BLAIR          RAIN      60  57  92 SE13G18   29.86F
COLUMBUS *     CLOUDY    64  54  68 SE10      29.85F
FREMONT        CLOUDY    63  58  86 SE10      29.85F
TEKAMAH        LGT RAIN  63  60  90 SE14      29.86F
WAYNE          CLOUDY    63  58  82 SE13      29.87F
$$

NEZ050>053-065>068-078-088>093-182200-
SOUTHEAST NEBRASKA

CITY           SKY/WX    TMP DP  RH WIND       PRES   REMARKS
LINCOLN        CLOUDY    65  58  78 E8        29.83F
OMAHA EPPLEY   LGT RAIN  61  59  93 S5        29.87F
BEATRICE       CLOUDY    64  58  80 SE9       29.83F
FALLS CITY     LGT RAIN  63  60  90 E9        29.86F
NEBRASKA CITY  DRIZZLE   62  60  94 E3        29.85F
PLATTSMOUTH    LGT RAIN  61  57  88 W3        29.86F
$$

NEZ044-045-051>053-067-182200-
OMAHA AREA

CITY           SKY/WX    TMP DP  RH WIND       PRES   REMARKS
OMAHA EPPLEY   LGT RAIN  61  59  93 S5        29.87F
BLAIR          RAIN      60  57  92 SE13G18   29.86F
FREMONT        CLOUDY    63  58  86 SE10      29.85F
MILLARD        LGT RAIN  61  59  94 E7        29.86F
OFFUTT AFB     LGT RAIN  61  57  87 W3        29.85F
PLATTSMOUTH    LGT RAIN  61  57  88 W3        29.86F
WAHOO          MOCLDY    62  57  84 SE12      29.84F
$$


USA.gov is the U.S. government's official web portal to all federal, state and local government web resources and services.